Regional Weather Roundup
Issued by NWS Kansas City/Pleasant Hill, MO

Home | Current Version | Previous Version | Graphics & Text | Print | Product List | Glossary Off
Versions: 1 2 3 4 5 6 7 8 9 10 11 12 13 14 15 16 17 18 19 20 21 22 23 24 25 26 27 28 29 30 31 32 33 34 35 36 37 38 39 40 41 42 43 44 45 46 47 48 49 50

000
ASUS43 KEAX 070410
RWREAX

WEATHER ROUNDUP FOR EASTERN KANSAS AND NORTHWEST MISSOURI
NATIONAL WEATHER SERVICE KANSAS CITY/PLEASANT HILL MO
1100 PM CDT MON JUL 06 2015

KSZ040-057-103>105-MOZ028-029-037-043-070500-
...KANSAS CITY METROPOLITAN AREA...

CITY           SKY/WX    TMP DP  RH WIND       PRES   REMARKS
K.C. INTL      CLOUDY    72  71  97 N3        29.93R
K.C. DOWNTOWN  CLOUDY    73  71  93 CALM      29.92R
LEES SUMMIT    CLOUDY    71  69  93 NW9       29.93
OLATHE - IXD   CLOUDY    72  71  97 W8        29.94
OLATHE - OJC   CLOUDY    70  70 100 NW8       29.93R
LAWRENCE       CLOUDY    73  71  93 NW8       29.93R

$$

MOZ001>008-011>017-020>025-030>033-038>040-044>046-053-054-070500-
...NORTHERN AND CENTRAL MISSOURI...

CITY           SKY/WX    TMP DP  RH WIND       PRES   REMARKS
ST. JOSEPH     CLOUDY    68  66  93 MISG      29.95R FOG
MOSBY            N/A     72  72 100 NW3       29.91R
WARRENSBURG    CLOUDY    70  70 100 CALM      29.92R FOG
WHITEMAN AFB   CLOUDY    72  71  96 W2        29.91R
CLINTON        MOCLDY    73  72  94 NW3       29.92R
SEDALIA        LGT RAIN  73  70  90 W5        29.94
WARSAW         NOT AVBL
CHILLICOTHE      N/A     73  71  93 N6        29.90R
KIRKSVILLE     MOCLDY    72  70  93 N7        29.89S

$$

MOZ041-047>049-056>058-063>065-088>090-097-070500-
...EASTERN AND SOUTHERN MISSOURI...

CITY           SKY/WX    TMP DP  RH WIND       PRES   REMARKS
ST. LOUIS INTL CLOUDY    83  72  69 S10       29.91S
SPIRIT OF STL  FAIR      80  74  81 S8        29.89S
COLUMBIA       CLOUDY    75  71  87 N12       29.90R
JEFFERSON CITY FAIR      80  72  76 S7        29.87
ROLLA          FAIR      77  72  84 S12       29.92
OSAGE BEACH    FAIR      79  70  73 S8        29.89F
SPRINGFIELD    MOCLDY    77  73  87 S9        29.96
BRANSON        CLOUDY    75  72  88 CALM      30.01R
JOPLIN         RAIN      69  68  96 NW7       29.98R FOG
WEST PLAINS    MOCLDY    78  71  79 S9        30.01

$$

IAZ060-094-KSZ022-034>040-054-083-096-NEZ052-066-093-070500-
...KANSAS...SOUTHEAST NEBRASKA AND IOWA...

CITY           SKY/WX    TMP DP  RH WIND       PRES   REMARKS
TOPEKA         LGT RAIN  69  68  96 N10G22    29.96R FOG
MANHATTAN      CLOUDY    71  68  90 NE12      29.99R
EMPORIA        CLOUDY    70  69  97 SW6       29.96R
CHANUTE        LGT RAIN  71  71 100 S5        29.95R
WICHITA        HVY RAIN  73  71  93 N14       29.97R FOG
OMAHA          CLOUDY    69  61  75 N14       30.04  HAZE
LINCOLN        CLOUDY    67  60  78 N10       30.07R HAZE
FALLS CITY     CLOUDY    69  63  81 N8        29.99  HAZE
LAMONI         CLOUDY    67  64  90 NE10      29.96R FOG
DES MOINES     MOCLDY    69  59  70 N9        29.97R HAZE

$$



USA.gov is the U.S. government's official web portal to all federal, state and local government web resources and services.